STARLINK-1021 (44726 NORAD) Tracking and Keplerian Element Data

This shows tracking and keplerian element data for the satellite.

Feedback or suggestion? Click here.




ElementValue
Catalog44726
NameSTARLINK-1021
Epoch Orbit1145
Epoch Day23.25001157
Epoch Year2020
RAAN169.3274
Inclination53.006
Eccentricity0.0003768
Argument of Perigee14.5025
Mean Anonmoly276.9646
Mean Motion15.73030281
Decay Rate0.01098705
L11 44726U 19074P 20023.25001157 .01098705 00000-0 70501-2 0 9997
L22 44726 53.0060 169.3274 0003768 14.5025 276.9646 15.73030281 11453

Live tracking and technical data element details for STARLINK-1021 (NORAD 44726). STARLINK-1021 can be tracked NOW for your location showing map with azimuth and elevation plus other details from your city location.

Track the satellite on the map from your city or location and see movement details for azimuth, elevation, latitude, longitude, range, height, and movement on the map or in text.







IsCatalogInMostPopularTable: catalog: 44726, numindb: 8
Update: records affected: 1



GetName: 44726 STARLINK-1021

Hit Count: updated at: Fri, 24 Jan 2020 15:20:33 GMT